Regional Weather Roundup
Issued by NWS Jackson, KY

Home | Current Version | Previous Version | Text Only | Print | Product List | Glossary Off
Versions: 1 2 3 4 5 6 7 8 9 10 11 12 13 14 15 16 17 18 19 20 21 22 23 24 25 26 27

000
ASUS43 KJKL 291210
RWRJKL

EAST KENTUCKY HOURLY WEATHER ROUNDUP
NATIONAL WEATHER SERVICE JACKSON KY
800 AM EDT FRI JUL 29 2016

NOTE: "FAIR" INDICATES FEW OR NO CLOUDS BELOW 12,000 FEET WITH
NO SIGNIFICANT WEATHER AND/OR OBSTRUCTIONS TO VISIBILITY.

* THESE REPORTS ARE NOT UNDER NWS QUALITY CONTROL AND MAY NOT
  REPORT WEATHER SUCH AS PRECIPITATION AND FOG.

KYZ079-080-083-085-087-088-110-112-115-119-120-291300
...EASTERN KENTUCKY...

CITY           SKY/WX    TMP DP  RH WIND       PRES   REMARKS
JACKSON        CLOUDY    70  69  97 CALM      30.01R FOG
6HR MIN TEMP:  69; 6HR MAX TEMP:  70;

LONDON         HVY RAIN  70  67  90 CALM      30.02R FOG
6HR MIN TEMP:  69; 6HR MAX TEMP:  70; 6HR PCP:  0.03;

SOMERSET*      CLOUDY    70  70 100 CALM      30.01R
MONTICELLO*    CLOUDY   N/A N/A N/A N8        30.00S
                                      6HR PCP: TRACE;

WILLIAMSBURG*  CLOUDY    68  68 100 CALM      30.01R
MIDDLESBORO*   CLOUDY    67  67 100 CALM      30.03R
6HR MIN TEMP:  66; 6HR MAX TEMP:  69;

HARLAN APT*    CLOUDY    68  66  94 CALM      30.03R
PIKE CO APT*   CLOUDY    69  69 100 CALM      30.02R
BIG SANDY APT* CLOUDY    70  70  99 SW3       30.00S
6HR MIN TEMP:  70; 6HR MAX TEMP:  70;

MOREHEAD APT*  LGT RAIN  72  70  94 CALM      30.00R
ASHLAND*       CLOUDY    73  72  94 CALM      29.94R
$$

KYZ035-036-041-042-044-050-067-078-099-291300
...CENTRAL KENTUCKY...

CITY           SKY/WX    TMP DP  RH WIND       PRES   REMARKS
MT STERLING*   PTSUNNY   70  70 100 W3        29.99S
FLEMING/MASON* CLOUDY    70  70  99 S6        29.99R FOG
DANVILLE*      CLOUDY    72  72 100 SW5       29.99R
LEXINGTON      CLOUDY    73  70  90 S6        29.97R
6HR MIN TEMP:  70; 6HR MAX TEMP:  73;

FRANKFORT      PTSUNNY   73  70  90 SW7       29.95R
6HR MIN TEMP:  71; 6HR MAX TEMP:  73;

LOUISVILLE     CLOUDY    74  70  87 CALM      29.94R
6HR MIN TEMP:  73; 6HR MAX TEMP:  78;

LEBANON*       PTSUNNY   73  73 100 S5        29.97R
GLASGOW*       MOSUNNY   73  73 100 SW3       29.97R
BOWLING GREEN  CLOUDY    74  71  91 SW5       29.96R
6HR MIN TEMP:  73; 6HR MAX TEMP:  74; 6HR PCP:  0.01;

$$

KYZ091>093-OHZ055-061-077-WVZ005-015-034-035-042-291300
...SOUTHERN OHIO/WEST VIRGINIA...

CITY           SKY/WX    TMP DP  RH WIND       PRES   REMARKS
COVINGTON      PTSUNNY   72  72 100 S5        29.96R FOG
COLUMBUS       PTSUNNY   69  68  96 SE5       29.94R FOG
DAYTON         SUNNY     72  68  87 SW3       29.96R
WILMINGTON     CLOUDY    71  71 100 S6        29.96R FOG
HUNTINGTON     CLOUDY    72  70  93 S5        29.96S FOG
CHARLESTON     PTSUNNY   72  69  90 SW6       29.97S FOG
PINEVILLE*     CLOUDY    70  67  89 MISG      30.07R
BECKLEY        CLOUDY    67  65  93 W6        30.04S
BLUEFIELD      LGT RAIN  65  64  97 NW8       30.07R FOG
LOGAN CO APT*  FOG       70  70 100 CALM      30.00S VSB<1/4
$$

VAZ002-007-008-TNZ017-027-036-066-071-291300
...SOUTHWEST VIRGINIA/EAST TENNESSEE...

CITY           SKY/WX    TMP DP  RH WIND       PRES   REMARKS
WISE*          CLOUDY    68  66  94 W3        30.08S
JONESVILLE*    CLOUDY    68  68 100 CALM      30.05R
ABINGDON*      CLOUDY    70  69  96 SW3       30.06R
BRISTOL        PTSUNNY   71  68  90 S3        30.03S
MORRISTOWN*    CLOUDY    72  72 100 SW3       30.02S FOG
SEVIERVILLE*   CLOUDY    72  70  94 CALM      30.02R
KNOXVILLE      CLOUDY    74  71  91 SW9       30.01R
OAK RIDGE      CLOUDY    74  72  93 CALM      30.02R
CROSSVILLE     MOSUNNY   70  69  97 CALM      30.05S
NASHVILLE      PTSUNNY   77  73  88 S6        29.98R
$$

...KEY TO REMARKS...
VSB - VISIBILITY IN MILES
WCI - WIND CHILL INDEX
HX  - HEAT INDEX

$$




USA.gov is the U.S. government's official web portal to all federal, state and local government web resources and services.